Storm Lake, IA

3:35 PM CST on January 23, 2017 (GMT -0600)
Storm Lake Municipal

Weather History for KSLB - September, 2011

Change the Weather History Date:

Sunday, September 11, 2011

  Actual Average Record
Temperature  
Mean Temperature 72 °F -  
Max Temperature 84 °F 75 °F 93 °F (1998)
Min Temperature 59 °F 53 °F 46 °F (2014)
Cooling Degree Days 6    
Growing Degree Days 22 (Base 50)    
Moisture  
Dew Point 54 °F    
Average Humidity 59    
Maximum Humidity 81    
Minimum Humidity 30    
Precipitation  
Precipitation 0.00 in - - ()
Sea Level Pressure  
Sea Level Pressure 30.06 in    
Wind  
Wind Speed 7 mph (WSW)    
Max Wind Speed 10 mph    
Max Gust Speed 16 mph    
Visibility 10 miles    
Events      
Averages and records for this station are not official NWS values.
T = Trace of Precipitation, MM = Missing Value Source: NWS Daily Summary

Daily Weather History Graph

Daily Weather History Graph

Search for Another Location

Airport or City:

Trip Planner

Search our weather history database for the weather conditions in past years. The results will help you decide how hot, cold, wet, or windy it might be!

Date:

Astronomy

Sep. 11, 2011 Rise Set
Actual Time 6:56 AM CDT 7:38 PM CDT
Civil Twilight 6:27 AM CDT 8:06 PM CDT
Nautical Twilight 5:53 AM CDT 8:40 PM CDT
Astronomical Twilight 5:18 AM CDT 9:15 PM CDT
Moon 6:59 PM CDT (9/11) 6:16 AM CDT (9/11)
Length of Visible Light 13h 38m
Length of Day
12h 42m
Full, 100% of the Moon is Illuminated
Sep 11
Full
Sep 12
Full
Sep 20
Last Quarter
Sep 27
New
Oct 3
First Quarter

Hourly Weather History & Observations

Time (CDT) Temp. Heat Index Dew Point Humidity Pressure Visibility Wind Dir Wind Speed Gust Speed Precip Events Conditions
12:15 AM 60.6 °F - 50.5 °F 69% 30.08 in 10.0 mi WSW 6.9 mph - N/A   Clear
12:35 AM 61.3 °F - 50.4 °F 67% 30.08 in 10.0 mi West 6.9 mph - N/A   Clear
12:55 AM 62.2 °F - 50.7 °F 66% 30.07 in 10.0 mi West 6.9 mph - N/A   Clear
1:15 AM 61.9 °F - 51.3 °F 68% 30.07 in 10.0 mi West 8.1 mph - N/A   Clear
1:35 AM 61.9 °F - 51.6 °F 69% 30.07 in 10.0 mi West 8.1 mph - N/A   Clear
1:55 AM 62.1 °F - 51.8 °F 69% 30.07 in 10.0 mi West 8.1 mph - N/A   Clear
2:15 AM 61.9 °F - 52.0 °F 70% 30.07 in 10.0 mi West 8.1 mph - N/A   Clear
2:35 AM 61.5 °F - 52.2 °F 71% 30.06 in 10.0 mi WSW 5.8 mph - N/A   Clear
2:55 AM 61.0 °F - 52.3 °F 73% 30.06 in 10.0 mi West 6.9 mph - N/A   Clear
3:15 AM 60.1 °F - 52.2 °F 75% 30.06 in 10.0 mi WSW 6.9 mph - N/A   Clear
3:35 AM 61.0 °F - 51.8 °F 72% 30.07 in 10.0 mi West 6.9 mph - N/A   Clear
4:15 AM 61.0 °F - 51.8 °F 72% 30.07 in 10.0 mi West 9.2 mph - N/A   Clear
4:35 AM 61.0 °F - 51.8 °F 72% 30.07 in 10.0 mi West 8.1 mph - N/A   Clear
4:55 AM 60.8 °F - 51.8 °F 72% 30.07 in 10.0 mi West 8.1 mph - N/A   Clear
5:15 AM 60.1 °F - 51.8 °F 74% 30.07 in 10.0 mi West 8.1 mph - N/A   Clear
5:35 AM 59.4 °F - 51.8 °F 76% 30.07 in 10.0 mi West 8.1 mph - N/A   Clear
5:55 AM 59.2 °F - 52.0 °F 77% 30.07 in 10.0 mi West 9.2 mph - N/A   Clear
6:15 AM 59.7 °F - 52.0 °F 76% 30.07 in 10.0 mi West 10.4 mph - N/A   Clear
6:35 AM 59.9 °F - 52.2 °F 76% 30.08 in 10.0 mi West 9.2 mph - N/A   Clear
7:15 AM 59.9 °F - 52.3 °F 76% 30.08 in 10.0 mi West 9.2 mph - N/A   Clear
7:35 AM 60.1 °F - 52.7 °F 77% 30.08 in 10.0 mi West 9.2 mph - N/A   Clear
7:55 AM 61.0 °F - 53.4 °F 76% 30.08 in 10.0 mi West 8.1 mph - N/A   Clear
8:15 AM 62.2 °F - 54.3 °F 75% 30.09 in 10.0 mi West 5.8 mph - N/A   Clear
8:35 AM 63.5 °F - 55.2 °F 74% 30.09 in 10.0 mi WSW 6.9 mph - N/A   Clear
8:55 AM 64.8 °F - 56.1 °F 74% 30.09 in 10.0 mi WSW 6.9 mph - N/A   Clear
9:15 AM 66.2 °F - 57.2 °F 73% 30.09 in 10.0 mi West 6.9 mph - N/A   Clear
9:35 AM 68.2 °F - 58.5 °F 71% 30.09 in 10.0 mi West 6.9 mph - N/A   Clear
9:55 AM 69.8 °F - 59.0 °F 68% 30.09 in 10.0 mi West 5.8 mph - N/A   Clear
10:15 AM 72.0 °F - 59.2 °F 64% 30.09 in 10.0 mi West 6.9 mph - N/A   Clear
10:35 AM 74.1 °F - 59.5 °F 60% 30.09 in 10.0 mi WSW 6.9 mph - N/A   Clear
10:55 AM 75.7 °F - 59.4 °F 57% 30.09 in 10.0 mi West 5.8 mph - N/A   Clear
11:15 AM 77.7 °F - 59.4 °F 53% 30.09 in 10.0 mi West 8.1 mph - N/A   Clear
11:35 AM 79.0 °F - 58.3 °F 49% 30.09 in 10.0 mi West 6.9 mph - N/A   Clear
11:55 AM 80.1 °F 80.6 °F 58.1 °F 47% 30.09 in 10.0 mi West 8.1 mph - N/A   Clear
12:15 PM 81.0 °F 81.0 °F 57.2 °F 44% 30.09 in 10.0 mi WSW 6.9 mph - N/A   Clear
12:35 PM 81.7 °F 81.5 °F 57.2 °F 43% 30.08 in 10.0 mi West 4.6 mph - N/A   Clear
12:55 PM 82.4 °F 81.8 °F 55.8 °F 40% 30.08 in 10.0 mi West 8.1 mph - N/A   Clear
1:15 PM 83.3 °F - 52.2 °F 34% 30.07 in 10.0 mi WSW 8.1 mph - N/A   Clear
1:35 PM 84.0 °F - 51.3 °F 32% 30.07 in 10.0 mi WSW 8.1 mph 16.1 mph N/A   Clear
2:15 PM 84.2 °F - 51.6 °F 32% 30.06 in 10.0 mi West 6.9 mph - N/A   Scattered Clouds
2:35 PM 84.0 °F - 50.9 °F 32% 30.05 in 10.0 mi WSW 5.8 mph - N/A   Clear
2:55 PM 84.9 °F - 49.8 °F 30% 30.05 in 10.0 mi WSW 9.2 mph - N/A   Clear
3:15 PM 84.6 °F - 51.3 °F 32% 30.05 in 10.0 mi WSW 9.2 mph - N/A   Clear
3:35 PM 84.9 °F - 51.6 °F 32% 30.04 in 10.0 mi WSW 8.1 mph - N/A   Clear
3:55 PM 84.4 °F - 51.1 °F 32% 30.04 in 10.0 mi SW 6.9 mph - N/A   Clear
4:15 PM 83.7 °F - 51.4 °F 33% 30.02 in 10.0 mi Calm Calm - N/A   Clear
4:35 PM 83.7 °F - 52.0 °F 33% 30.02 in 10.0 mi WSW 8.1 mph - N/A   Scattered Clouds
4:55 PM 84.0 °F - 52.2 °F 33% 30.02 in 10.0 mi SW 9.2 mph - N/A   Scattered Clouds
5:15 PM 83.5 °F - 52.9 °F 35% 30.02 in 10.0 mi SW 6.9 mph - N/A   Clear
5:35 PM 82.9 °F 81.8 °F 53.6 °F 36% 30.02 in 10.0 mi SW 6.9 mph - N/A   Scattered Clouds
5:55 PM 82.0 °F 81.3 °F 54.3 °F 38% 30.02 in 10.0 mi SW 4.6 mph - N/A   Clear
6:15 PM 80.8 °F 80.6 °F 55.2 °F 41% 30.01 in 10.0 mi SW 8.1 mph - N/A   Clear
6:35 PM 79.0 °F - 57.0 °F 47% 30.01 in 10.0 mi SW 4.6 mph - N/A   Clear
6:55 PM 77.2 °F - 58.5 °F 52% 30.01 in 10.0 mi SSW 4.6 mph - N/A   Clear
7:15 PM 74.8 °F - 58.8 °F 57% 30.00 in 10.0 mi SW 4.6 mph - N/A   Clear
7:35 PM 72.5 °F - 58.8 °F 62% 30.01 in 10.0 mi SW 4.6 mph - N/A   Clear
7:55 PM 71.1 °F - 58.5 °F 64% 30.01 in 10.0 mi SW 4.6 mph - N/A   Clear
8:15 PM 70.0 °F - 58.5 °F 67% 30.01 in 10.0 mi SSW 4.6 mph - N/A   Clear
8:35 PM 68.7 °F - 58.3 °F 69% 30.02 in 10.0 mi SSW 3.5 mph - N/A   Clear
8:55 PM 66.6 °F - 58.1 °F 74% 30.02 in 10.0 mi SSW 3.5 mph - N/A   Clear
9:15 PM 64.8 °F - 57.4 °F 77% 30.04 in 10.0 mi SSW 5.8 mph - N/A   Clear
9:35 PM 62.8 °F - 57.0 °F 81% 30.04 in 10.0 mi SSW 5.8 mph - N/A   Clear
9:55 PM 63.1 °F - 57.4 °F 81% 30.04 in 10.0 mi South 5.8 mph - N/A   Clear
10:15 PM 63.5 °F - 57.4 °F 80% 30.03 in 10.0 mi South 4.6 mph - N/A   Clear
10:35 PM 63.3 °F - 57.2 °F 80% 30.03 in 10.0 mi SSW 5.8 mph - N/A   Clear
10:55 PM 63.5 °F - 57.4 °F 80% 30.02 in 10.0 mi South 5.8 mph - N/A   Clear
11:15 PM 63.0 °F - 56.7 °F 80% 30.02 in 10.0 mi South 5.8 mph - N/A   Clear
11:35 PM 62.2 °F - 56.3 °F 81% 30.02 in 10.0 mi South 5.8 mph - N/A   Clear
11:55 PM 61.9 °F - 55.8 °F 80% 30.02 in 10.0 mi South 5.8 mph - N/A   Clear